| time (UTC) | temp F | wind direction | speed MPH | gust MPH | rain 1hr in | rain 24hr in | rain mn in | humidity % | barometer mb |
| 20260901180034 | 75 | 340 | 1.0 | 9.0 | 0.00 | 0.00 | 0.00 | 51 | 1015.6 |
| 20260901174533 | 74 | 25 | 0.0 | 4.0 | 0.00 | 0.00 | 0.00 | 57 | 1015.7 |
| 20260901173031 | 76 | 34 | 3.0 | 6.0 | 0.00 | 0.00 | 0.00 | 52 | 1015.7 |
| 20260901171527 | 74 | 161 | 1.0 | 8.0 | 0.00 | 0.00 | 0.00 | 60 | 1015.7 |
| 20260901170024 | 71 | 213 | 1.0 | 3.0 | 0.00 | 0.00 | 0.00 | 64 | 1015.7 |
| 20260901164524 | 71 | 26 | 1.0 | 5.0 | 0.00 | 0.00 | 0.00 | 62 | 1015.7 |
| 20260901163021 | 69 | 32 | 2.0 | 4.0 | 0.00 | 0.00 | 0.00 | 63 | 1016.0 |
| 20260901161533 | 69 | 13 | 0.0 | 3.0 | 0.00 | 0.00 | 0.00 | 69 | 1016.1 |
| 20260901160034 | 69 | 67 | 1.0 | 3.0 | 0.00 | 0.00 | 0.00 | 66 | 1016.2 |
| 20260901154523 | 70 | 355 | 1.0 | 6.0 | 0.00 | 0.00 | 0.00 | 63 | 1016.3 |
| 20260901153015 | 68 | 285 | 2.0 | 6.0 | 0.00 | 0.00 | 0.00 | 72 | 1016.3 |
| 20260901151512 | 66 | 35 | 2.0 | 5.0 | 0.00 | 0.00 | 0.00 | 71 | 1016.3 |
| 20260901150011 | 65 | 5 | 1.0 | 4.0 | 0.00 | 0.00 | 0.00 | 72 | 1016.3 |
| 20260901144507 | 65 | 355 | 0.0 | 3.0 | 0.00 | 0.00 | 0.00 | 74 | 1016.1 |
| 20260901143005 | 64 | 13 | 1.0 | 3.0 | 0.00 | 0.00 | 0.00 | 75 | 1016.1 |
| 20260901141506 | 63 | 35 | 1.0 | 5.0 | 0.00 | 0.00 | 0.00 | 74 | 1016.1 |
| 20260901140004 | 63 | 63 | 1.0 | 4.0 | 0.00 | 0.00 | 0.00 | 75 | 1016.3 |
| 20260901134621 | 62 | 73 | 0.0 | 3.0 | 0.00 | 0.00 | 0.00 | 81 | 1016.5 |
| 20260901133056 | 61 | 55 | 0.0 | 2.0 | 0.00 | 0.00 | 0.00 | 81 | 1016.5 |
| 20260901131553 | 60 | 58 | 0.0 | 1.0 | 0.00 | 0.00 | 0.00 | 82 | 1016.5 |
| 20260901124601 | 60 | 61 | 0.0 | 1.0 | 0.00 | 0.00 | 0.00 | 83 | 1016.7 |
| 20260901123050 | 60 | 61 | 0.0 | 3.0 | 0.00 | 0.00 | 0.00 | 85 | 1016.6 |
| 20260901121553 | 60 | 22 | 0.0 | 3.0 | 0.00 | 0.00 | 0.00 | 84 | 1016.7 |
| 20260901120058 | 59 | 360 | 0.0 | 3.0 | 0.00 | 0.00 | 0.00 | 85 | 1016.8 |
| 20260901114543 | 58 | 326 | 0.0 | 4.0 | 0.00 | 0.00 | 0.00 | 88 | 1016.5 |
| 20260901113105 | 58 | 274 | 0.0 | 2.0 | 0.00 | 0.00 | 0.00 | 89 | 1016.4 |
| 20260901111536 | 57 | 274 | 0.0 | 2.0 | 0.00 | 0.00 | 0.00 | 90 | 1016.1 |
| 20260901110034 | 56 | 271 | 0.0 | 1.0 | 0.00 | 0.00 | 0.00 | 90 | 1016.0 |
| 20260901104534 | 56 | 261 | 0.0 | 1.0 | 0.00 | 0.00 | 0.00 | 91 | 1015.9 |
| 20260901103033 | 55 | 260 | 0.0 | 3.0 | 0.00 | 0.00 | 0.00 | 91 | 1015.9 |
| 20260901101545 | 55 | 192 | 0.0 | 1.0 | 0.00 | 0.00 | 0.00 | 91 | 1015.5 |
| 20260901100030 | 55 | 194 | 0.0 | 1.0 | 0.00 | 0.00 | 0.00 | 91 | 1015.2 |
| 20260901094529 | 55 | 194 | 0.0 | 1.0 | 0.00 | 0.00 | 0.00 | 90 | 1015.4 |
| 20260901093027 | 54 | 194 | 0.0 | 2.0 | 0.00 | 0.00 | 0.00 | 90 | 1015.6 |
| 20260901091528 | 54 | 190 | 0.0 | 0.0 | 0.00 | 0.00 | 0.00 | 90 | 1015.5 |
| 20260901090028 | 54 | 190 | 0.0 | 1.0 | 0.00 | 0.00 | 0.00 | 90 | 1015.6 |
| 20260901084532 | 54 | 190 | 0.0 | 1.0 | 0.00 | 0.00 | 0.00 | 90 | 1015.6 |
| 20260901083025 | 54 | 190 | 0.0 | 0.0 | 0.00 | 0.00 | 0.00 | 90 | 1015.5 |
| 20260901081521 | 54 | 190 | 0.0 | 2.0 | 0.00 | 0.00 | 0.00 | 90 | 1015.7 |
| 20260901080020 | 54 | 188 | 0.0 | 1.0 | 0.00 | 0.00 | 0.00 | 90 | 1015.7 |
| 20260901074525 | 54 | 188 | 0.0 | 1.0 | 0.00 | 0.00 | 0.00 | 90 | 1015.7 |
| 20260901073018 | 54 | 187 | 0.0 | 1.0 | 0.00 | 0.00 | 0.00 | 90 | 1015.7 |
| 20260901071517 | 54 | 186 | 0.0 | 2.0 | 0.00 | 0.00 | 0.00 | 90 | 1016.0 |
| 20260901070016 | 54 | 186 | 0.0 | 1.0 | 0.00 | 0.00 | 0.00 | 90 | 1016.0 |
| 20260901064518 | 54 | 186 | 0.0 | 1.0 | 0.00 | 0.00 | 0.00 | 89 | 1016.0 |
| 20260901063015 | 54 | 186 | 0.0 | 2.0 | 0.00 | 0.00 | 0.00 | 90 | 1015.9 |
| 20260901061511 | 54 | 186 | 0.0 | 0.0 | 0.00 | 0.00 | 0.00 | 89 | 1015.8 |
| 20260901060009 | 55 | 186 | 0.0 | 2.0 | 0.00 | 0.00 | 0.00 | 89 | 1015.9 |
| 20260901054508 | 55 | 186 | 0.0 | 1.0 | 0.00 | 0.00 | 0.00 | 89 | 1015.7 |
| 20260901053007 | 55 | 186 | 0.0 | 1.0 | 0.00 | 0.00 | 0.00 | 89 | 1015.7 |
| 20260901051505 | 55 | 186 | 0.0 | 1.0 | 0.00 | 0.00 | 0.00 | 89 | 1015.8 |
| 20260901050004 | 56 | 186 | 0.0 | 1.0 | 0.00 | 0.00 | 0.00 | 89 | 1016.0 |
| 20260901044505 | 56 | 186 | 0.0 | 1.0 | 0.00 | 0.00 | 0.00 | 89 | 1015.9 |
| 20260901043003 | 56 | 186 | 0.0 | 1.0 | 0.00 | 0.00 | 0.00 | 89 | 1015.9 |
| 20260901041600 | 56 | 186 | 0.0 | 1.0 | 0.00 | 0.00 | 0.00 | 89 | 1015.9 |
| 20260901040059 | 56 | 186 | 0.0 | 1.0 | 0.00 | 0.00 | 0.00 | 88 | 1015.7 |
| 20260901034605 | 56 | 186 | 0.0 | 1.0 | 0.00 | 0.00 | 0.00 | 88 | 1015.9 |
| 20260901033057 | 56 | 186 | 0.0 | 1.0 | 0.00 | 0.00 | 0.00 | 87 | 1015.9 |
| 20260901031559 | 56 | 186 | 0.0 | 1.0 | 0.00 | 0.00 | 0.00 | 87 | 1015.8 |
| 20260901030056 | 57 | 186 | 0.0 | 2.0 | 0.00 | 0.00 | 0.00 | 87 | 1015.8 |
| 20260901024603 | 57 | 186 | 0.0 | 1.0 | 0.00 | 0.00 | 0.00 | 87 | 1015.8 |
| 20260901023054 | 57 | 186 | 1.0 | 2.0 | 0.00 | 0.00 | 0.00 | 87 | 1015.8 |
| 20260901021616 | 58 | 186 | 0.0 | 1.0 | 0.00 | 0.00 | 0.00 | 86 | 1015.9 |
| 20260901020111 | 59 | 186 | 0.0 | 2.0 | 0.00 | 0.00 | 0.00 | 85 | 1015.9 |
| 20260901014557 | 60 | 186 | 0.0 | 2.0 | 0.00 | 0.01 | 0.00 | 84 | 1015.8 |
| 20260901013104 | 60 | 186 | 0.0 | 2.0 | 0.00 | 0.01 | 0.00 | 85 | 1015.8 |
| 20260901011554 | 60 | 186 | 0.0 | 1.0 | 0.00 | 0.01 | 0.00 | 84 | 1015.9 |
| 20260901010052 | 60 | 186 | 1.0 | 3.0 | 0.00 | 0.01 | 0.00 | 84 | 1015.8 |
| 20260901004552 | 60 | 179 | 0.0 | 1.0 | 0.00 | 0.01 | 0.00 | 84 | 1015.8 |
| 20260901003054 | 61 | 179 | 0.0 | 1.0 | 0.00 | 0.01 | 0.00 | 83 | 1015.9 |
| 20260901001606 | 61 | 179 | 0.0 | 0.0 | 0.00 | 0.01 | 0.00 | 83 | 1015.7 |
| 20260901000056 | 62 | 179 | 0.0 | 1.0 | 0.00 | 0.01 | 0.00 | 81 | 1015.6 |
| 20260831234602 | 63 | 179 | 0.0 | 1.0 | 0.00 | 0.01 | 0.00 | 80 | 1015.6 |
| 20260831233050 | 64 | 179 | 0.0 | 2.0 | 0.00 | 0.01 | 0.00 | 77 | 1015.6 |
| 20260831231548 | 65 | 177 | 0.0 | 2.0 | 0.00 | 0.01 | 0.00 | 75 | 1015.8 |
| 20260831230046 | 66 | 177 | 0.0 | 2.0 | 0.00 | 0.01 | 0.00 | 73 | 1016.0 |
| 20260831224544 | 67 | 177 | 0.0 | 2.0 | 0.00 | 0.01 | 0.00 | 70 | 1015.9 |
| 20260831223045 | 68 | 176 | 1.0 | 3.0 | 0.00 | 0.01 | 0.00 | 68 | 1015.8 |
| 20260831221543 | 69 | 174 | 0.0 | 3.0 | 0.00 | 0.01 | 0.00 | 64 | 1015.9 |
| 20260831220058 | 70 | 163 | 3.0 | 7.0 | 0.00 | 0.01 | 0.00 | 62 | 1015.8 |
| 20260831214546 | 70 | 161 | 1.0 | 5.0 | 0.00 | 0.01 | 0.00 | 61 | 1015.7 |
| 20260831213042 | 71 | 154 | 1.0 | 7.0 | 0.00 | 0.01 | 0.00 | 59 | 1015.8 |
| 20260831211548 | 72 | 177 | 1.0 | 6.0 | 0.00 | 0.01 | 0.00 | 58 | 1015.7 |
| 20260831210048 | 73 | 158 | 1.0 | 7.0 | 0.00 | 0.01 | 0.00 | 56 | 1015.8 |
| 20260831204540 | 74 | 236 | 2.0 | 7.0 | 0.00 | 0.01 | 0.00 | 53 | 1015.8 |
| 20260831203039 | 74 | 44 | 2.0 | 6.0 | 0.00 | 0.01 | 0.00 | 54 | 1015.9 |
| 20260831201546 | 73 | 212 | 1.0 | 8.0 | 0.00 | 0.01 | 0.00 | 56 | 1015.8 |
| 20260831200043 | 73 | 194 | 2.0 | 8.0 | 0.00 | 0.01 | 0.00 | 56 | 1015.8 |
| 20260831194613 | 75 | 150 | 2.0 | 9.0 | 0.00 | 0.01 | 0.00 | 50 | 1016.0 |
| 20260831193041 | 77 | 156 | 1.0 | 7.0 | 0.00 | 0.01 | 0.00 | 50 | 1016.2 |
| 20260831191540 | 78 | 115 | 2.0 | 8.0 | 0.00 | 0.01 | 0.00 | 41 | 1016.1 |
| 20260831190040 | 79 | 277 | 1.0 | 4.0 | 0.00 | 0.01 | 0.00 | 37 | 1016.2 |
| 20260831184554 | 78 | 148 | 0.0 | 4.0 | 0.00 | 0.01 | 0.00 | 39 | 1016.4 |
| 20260831183039 | 78 | 163 | 1.0 | 7.0 | 0.00 | 0.01 | 0.00 | 41 | 1016.3 |
| 20260831181533 | 78 | 178 | 1.0 | 4.0 | 0.00 | 0.01 | 0.00 | 42 | 1016.5 |